Location: Newark
(45.2500°N, 7.5833°E)
Time: 18:20:14
(UTC+00:00)

A-11 Canister half - Pass Details

Date: 27 January 2020
Orbit: 1525 x 1684 km, 47.3° (Epoch: 17 February)

Event Time Altitude Azimuth Distance (km) Brightness Sun altitude
Rises 19:38:52 0° 275° (W) 4,696 12.6 -33.3°
Reaches altitude 10° 19:41:53 10° 277° (W) 3,726 11.8 -33.9°
Maximum altitude 19:51:22 80° 5° (N) 1,603 8.9 -35.5°
Enters shadow 19:51:48 78° 37° (NE) 1,613 8.8 -35.6°
Drops below altitude 10° 20:01:11 10° 93° (E) 3,846 - -37.2°
Sets 20:04:21 0° 95° (E) 4,853 - -37.8°
